Tracking 30696 objects as of 15-Jun-2025
HD Live streaming from Space Station
objects crossing your sky now

JILIN-01 GAOFEN 3J

Track JILIN-01 GAOFEN 3J now!
10-day predictions


NORAD ID: 46462
Int'l Code: 2020-065J
Perigee: 439.5 km
Apogee: 447.6 km
Inclination: 97.3 °
Period: 93.3 minutes
Semi major axis: 6814 km
RCS: Unknown
Launch date: September 15, 2020
Source: People's Republic of China (PRC)
Launch site: Yellow Sea Launch Area, China (YSLA)
Your satellite tracking list
Your tracking list is empty




NASA's NSSDC Master Catalog

Two Line Element Set (TLE):
1 46462U 20065J   25166.19202072  .00018446  00000-0  41560-3 0  9990
2 46462  97.2823 214.0689 0005948  50.3029 309.8742 15.43300902263113
Source of the keplerian elements: AFSPC